Tracking 31032 objects as of 14-Jul-2025
HD Live streaming from Space Station
objects crossing your sky now

STARLINK-34600

Track STARLINK-34600 now!
10-day predictions
STARLINK-34600 is classified as:


NORAD ID: 64699
Int'l Code: 2025-142D
Perigee: 364.5 km
Apogee: 369.7 km
Inclination: 70.0 °
Period: 91.7 minutes
Semi major axis: 6738 km
RCS: Unknown
Launch date: June 28, 2025
Source: United States (US)
Launch site: AIR FORCE WESTERN TEST RANGE (AFWTR)
Your satellite tracking list
Your tracking list is empty




NASA's NSSDC Master Catalog

Two Line Element Set (TLE):
1 64699U 25142D   25194.83334491 -.01370536  00000-0 -12980-1 0  9992
2 64699  69.9995 207.8565 0003880 273.8655 105.6408 15.69622311  3420
Source of the keplerian elements: AFSPC